Terminal Aerodrome Forecast
Issued by NWS Upton, NY

Home | Current Version | Previous Version | Text Only | Print | Product List | Glossary On
Versions: 1 2 3 4 5 6 7 8 9 10 11 12 13 14 15 16 17 18 19 20 21 22 23 24 25 26 27 28 29 30 31
000
FTUS41 KOKX 262300
TAFLGA
TAF
KLGA 262323Z 2700/2724 35019G29KT 3SM -RA BR OVC012
      TEMPO 2701/2703 1SM -SN BR BKN008
     FM270300 33018G28KT 6SM -SN OVC018
      TEMPO 2703/2705 2SM -SN BR OVC010
     FM270500 32013KT P6SM BKN030 BKN100
     FM271000 31010KT P6SM BKN030=

USA.gov is the U.S. government's official web portal to all federal, state and local government web resources and services.